Weather in Villaviciosa

Spain     43°28′52″N   5°26′04″W
temp.,
°C
wind,
m/s
gust,
m/s
humid.,
%
clouds,
%
prec.,
mm/h
press.,
hPa
HPBL,
m
9 december, thu
thu901:00+8w61388100 6.4 10201467
04:00+6ssw3895100 2.8 1019395
07:00+8sw41492100 7.4 1017749
10:00+11w81792100 5.9 10171325
13:00+12w81891100 11.2 10181343
16:00+12wsw51692100 5.5 10171231
19:00+13wsw61686100 8.1 10171047
22:00+13wsw61688100 0.7 10171166
10 december, fri
fri1001:00+13wsw61889100 4.4 10171287
04:00+13w81892100 1.3 10161351
07:00+13wnw61393100 3.1 10181176
10:00+11wnw41292100 2.3 10201202
13:00+11wnw51290100 2.7 10211144
16:00+11w51284100 0.1 10211144
19:00+11w51181100 0.2 10241093
22:00+10w41085100 0.3 1024760
11 december, sat
sat1101:00+11w4983100 0.4 1025766
04:00+10sw3586100 0.1 1025308
07:00+11ssw2384100 0.1 102485
10:00+11sw2492100 0.6 1025127
13:00+12w3992100 1.2 1026522
16:00+13wnw3891100 0.3 1026460
19:00+12sw1292100 0.4 102858
22:00+11ssw2292100 0.1 102958
12 december, sun
sun1201:00+10s22925 0.1 102833
04:00+8s23907 0.0 102751
07:00+8s22895 0.0 102747
10:00+9s228529 0.0 102757
13:00+14ese12685 0.0 1024307
16:00+14ene117515 0.0 102362
19:00+10s21895 0.0 102430
22:00+9s227253 0.0 102338
13 december, mon
mon1301:00+8ssw227059 0.0 102339
04:00+8s22715 0.0 102236
07:00+8s21725 0.0 102231
10:00+9s22715 0.0 102346
13:00+14ne01578 0.0 1023212
16:00+13ene12705 0.0 1024131
19:00+10sse218669 0.0 102536
22:00+9s11877 0.0 102630